Date,TemperatureHighF,TemperatureAvgF,TemperatureLowF,DewpointHighF,DewpointAvgF,DewpointLowF,HumidityHigh,HumidityAvg,HumidityLow,PressureMaxIn,PressureMinIn,WindSpeedMaxMPH,WindSpeedAvgMPH,GustSpeedMaxMPH,PrecipitationSumIn
2013-1-1,35.7,26.6,10.4,24.8,12.7,0.3,67,55,44,30.01,29.74,11,3,23,0.00
2013-1-2,26.6,14.6,2.8,14.1,2.9,-10.0,70,59,44,30.28,29.96,9,2,21,0.00
2013-1-3,14.7,6.4,-7.0,4.2,-7.9,-18.0,63,51,39,30.30,29.99,3,1,5,0.00
2013-1-4,41.7,27.8,14.5,22.8,14.7,4.2,72,58,44,29.99,29.83,10,2,16,0.00
2013-1-5,39.3,32.2,22.4,24.7,17.8,11.9,67,56,37,30.26,29.90,12,3,23,0.00
2013-1-6,41.0,31.0,22.2,28.4,22.2,13.0,78,70,56,30.20,29.90,4,1,6,0.00
2013-1-7,36.5,26.9,13.6,30.5,17.9,6.9,82,69,58,30.41,29.99,8,2,15,0.00
2013-1-8,39.9,21.8,7.1,25.0,11.9,-1.0,74,65,53,30.39,30.30,4,1,5,0.00
2013-1-9,45.5,27.1,13.1,34.6,17.8,6.0,84,69,45,30.39,29.99,17,2,40,0.09
2013-1-10,42.9,37.7,27.5,30.2,23.5,17.4,72,56,47,30.59,30.17,17,3,40,0.01
2013-1-11,37.7,31.1,23.7,34.5,23.8,16.0,88,74,61,30.57,30.10,8,2,15,0.11
2013-1-12,44.0,39.1,35.2,41.8,36.3,31.4,93,89,84,30.16,30.08,5,0,8,0.00
2013-1-13,44.4,40.4,35.4,42.5,38.2,32.4,94,92,88,30.13,29.93,6,1,11,0.01
2013-1-14,45.6,40.8,33.9,43.2,31.8,20.3,94,71,50,30.34,29.85,15,3,24,0.08
2013-1-15,37.0,33.1,31.2,22.5,19.8,16.8,65,58,45,30.37,30.23,6,2,12,0.00
2013-1-16,32.0,30.2,28.4,27.5,25.0,20.1,87,81,63,30.24,29.82,4,0,6,0.00
2013-1-17,37.2,28.9,21.9,32.0,18.2,4.0,88,66,42,30.18,29.85,8,1,15,0.00
2013-1-18,23.3,17.6,10.7,8.3,-1.9,-15.0,62,43,21,30.42,30.11,8,2,16,0.00
2013-1-19,42.9,33.2,21.3,25.3,16.2,6.0,61,49,43,30.28,29.76,8,3,13,0.00
2013-1-20,44.2,34.7,21.3,32.4,19.2,5.3,77,54,29,30.04,29.50,15,4,30,0.01
2013-1-21,25.1,21.3,17.4,14.5,8.4,3.5,73,57,42,30.09,29.80,6,2,14,0.00
2013-1-22,18.6,14.7,8.7,8.7,-3.1,-15.0,69,47,21,30.15,29.80,13,3,20,0.00
2013-1-23,10.9,5.4,1.4,-2.0,-14.2,-20.0,60,39,24,30.24,30.13,11,2,15,0.00
2013-1-24,14.1,6.1,-4.0,-6.0,-12.6,-18.0,57,41,26,30.40,30.19,11,3,28,0.00
2013-1-25,17.6,10.9,3.2,5.3,-7.6,-16.0,69,43,25,30.44,30.10,11,3,20,0.00
2013-1-26,20.6,13.1,4.8,3.1,-1.7,-7.0,69,51,31,30.36,30.09,7,2,13,0.00
2013-1-27,26.0,17.8,11.3,2.5,-2.7,-8.0,65,42,22,30.54,30.36,10,3,15,0.00
2013-1-28,25.8,21.1,17.4,21.4,10.1,-4.0,83,64,36,30.49,29.96,7,2,9,0.00
2013-1-29,37.5,31.1,25.7,35.1,27.0,21.2,91,85,82,30.15,29.98,10,1,17,0.18
2013-1-30,54.3,46.9,37.5,51.8,44.6,35.1,94,92,87,30.01,29.28,10,3,17,0.14
2013-1-31,53.7,38.5,24.0,51.5,28.4,12.9,94,68,41,29.64,28.89,17,5,30,0.43
2013-2-1,28.5,23.5,18.1,13.9,5.0,0.0,70,45,32,30.16,29.64,11,4,26,0.04
2013-2-2,26.9,19.6,10.2,9.9,4.6,-2.0,64,52,35,30.24,30.03,8,2,15,0.00
2013-2-3,28.2,21.5,13.2,12.1,8.3,5.3,71,57,41,30.05,29.78,5,1,8,0.00
2013-2-4,26.4,20.9,14.0,14.5,7.9,2.6,71,57,40,29.97,29.78,11,3,21,0.00
2013-2-5,27.8,21.8,15.0,10.8,6.5,3.3,66,52,35,30.03,29.89,4,1,8,0.00
2013-2-6,32.7,25.6,17.7,22.6,9.2,-7.0,70,52,22,30.39,29.89,11,2,22,0.00
2013-2-7,23.5,18.7,12.7,2.7,-2.6,-7.0,56,39,27,30.57,30.39,7,3,10,0.00
2013-2-8,29.6,22.9,18.3,22.3,13.0,-1.0,84,67,41,30.40,29.85,11,4,17,0.00
2013-2-9,24.0,22.6,21.2,19.6,18.2,16.5,84,83,82,29.97,29.87,8,3,15,0.00
2013-2-10,28.5,17.1,0.0,5.1,-2.9,-13.0,59,42,21,30.53,30.29,4,2,7,0.00
2013-2-11,43.5,32.8,16.1,35.4,24.0,-1.0,89,70,41,30.28,29.64,12,4,21,0.01
2013-2-12,37.7,36.1,32.9,29.8,25.0,21.6,78,64,57,29.94,29.67,14,3,21,0.02
2013-2-13,40.8,33.5,29.3,24.8,20.8,14.7,75,61,37,29.90,29.73,5,1,10,0.00
2013-2-14,39.3,31.9,26.2,23.1,19.3,14.9,72,60,49,29.95,29.73,6,1,11,0.00
2013-2-15,48.3,37.3,28.2,27.9,23.1,19.8,76,58,36,30.01,29.87,11,2,19,0.00
2013-2-16,33.4,29.8,24.8,22.5,11.8,2.5,64,47,35,30.02,29.86,8,3,17,0.00
2013-2-17,24.6,19.5,12.3,4.3,-4.3,-11.0,44,34,23,29.96,29.69,18,6,31,0.00
2013-2-18,26.2,16.5,6.8,3.3,-7.2,-13.0,48,34,23,30.23,29.96,16,5,27,0.00
2013-2-19,41.3,30.0,17.6,30.7,17.2,0.3,85,60,41,30.17,29.62,13,3,24,0.04
2013-2-20,32.3,27.7,24.2,24.1,11.1,2.1,74,50,29,29.89,29.66,11,3,25,0.01
2013-2-21,24.8,20.0,17.2,13.1,5.5,0.0,71,53,43,30.40,29.88,16,6,29,0.01
2013-2-22,36.1,28.7,19.7,21.1,15.3,9.7,66,57,47,30.45,30.23,9,3,14,0.00
2013-2-23,36.5,34.7,32.9,32.0,27.6,20.9,85,76,58,30.23,29.87,11,4,17,0.01
2013-2-24,39.9,34.2,32.0,34.4,27.6,22.1,87,77,58,29.98,29.78,15,2,19,0.05
2013-2-25,42.6,35.6,29.6,28.9,25.5,21.9,80,67,48,30.25,29.99,6,2,11,0.00
2013-2-26,44.7,35.1,24.6,30.4,23.9,18.6,86,65,46,30.33,30.03,10,2,17,0.00
2013-2-27,41.1,36.2,32.1,37.0,31.5,23.6,88,83,61,30.04,29.56,11,2,15,0.35
2013-2-28,44.0,37.3,33.6,37.1,31.7,29.9,92,80,63,29.61,29.54,4,1,12,0.06
2013-3-1,40.6,35.4,32.0,32.3,28.2,22.3,84,75,65,29.78,29.60,9,3,17,0.00
2013-3-2,33.6,29.3,23.9,22.4,19.5,14.9,75,66,57,29.79,29.72,10,4,17,0.00
2013-3-3,30.9,25.4,21.3,18.5,14.3,11.4,69,63,55,29.78,29.69,10,4,18,0.00
2013-3-4,32.1,28.1,24.9,20.5,17.1,14.7,71,63,55,29.91,29.75,17,5,26,0.02
2013-3-5,42.4,33.0,28.0,24.8,20.7,15.1,76,61,47,30.10,29.91,8,3,15,0.00
2013-3-6,41.3,35.5,28.5,29.6,24.3,19.2,77,64,51,30.13,30.03,13,5,21,0.00
2013-3-7,38.6,34.5,30.0,29.4,23.0,17.1,86,64,44,30.17,30.10,11,3,15,0.00
2013-3-8,44.0,34.2,28.4,33.8,27.1,21.8,87,76,54,30.31,30.12,6,1,10,0.00
2013-3-9,51.9,38.1,28.5,24.8,20.6,16.4,76,52,26,30.36,30.27,6,2,10,0.00
2013-3-10,53.0,39.6,23.0,30.1,21.7,15.3,76,51,28,30.37,30.18,11,3,18,0.00
2013-3-11,49.4,43.3,36.3,40.4,33.5,28.0,77,68,59,30.23,29.97,14,5,29,0.00
2013-3-12,52.8,47.6,36.3,49.4,42.5,29.1,88,82,74,29.99,29.67,14,5,22,0.35
2013-3-13,46.2,37.4,32.0,28.9,24.5,15.1,80,62,30,29.88,29.76,15,3,21,0.00
2013-3-14,32.3,26.8,23.3,20.0,9.1,-1.0,61,47,32,29.93,29.83,12,5,23,0.00
2013-3-15,37.2,29.5,19.0,28.9,15.3,2.6,84,56,37,29.96,29.64,10,2,18,0.00
2013-3-16,35.0,29.2,21.3,22.1,11.6,4.6,69,48,28,29.93,29.76,6,2,12,0.00
2013-3-17,35.7,27.4,18.3,11.2,3.6,-4.0,57,38,21,30.34,29.92,10,3,18,0.00
2013-3-18,36.8,26.7,14.3,23.3,3.5,-7.0,81,40,20,30.47,30.09,8,3,17,0.00
2013-3-19,35.2,30.5,26.4,31.1,26.2,21.3,87,84,81,30.09,29.70,6,1,11,0.00
2013-3-20,38.3,28.7,18.5,21.6,17.1,11.0,82,63,43,29.82,29.75,10,1,17,0.00
2013-3-21,37.5,27.3,14.0,14.7,8.3,1.1,72,47,24,29.82,29.64,8,2,17,0.00
2013-3-22,35.7,28.3,19.5,23.2,15.6,5.6,76,59,44,29.83,29.68,12,2,23,0.07
2013-3-23,40.2,34.4,30.0,24.1,19.9,15.4,76,56,42,29.90,29.77,13,4,26,0.02
2013-3-24,45.3,37.1,31.1,22.8,19.7,-15.0,62,50,12,29.91,29.75,9,3,12,0.00
2013-3-25,44.4,36.5,29.3,25.9,21.8,19.3,66,56,43,29.78,29.52,11,4,19,0.00
2013-3-26,47.4,40.6,35.2,27.0,19.5,9.7,65,45,23,29.85,29.60,10,3,15,0.00
2013-3-27,51.4,41.0,35.4,29.0,24.8,15.0,65,53,38,29.95,29.82,13,4,23,0.00
2013-3-28,48.3,41.2,35.6,33.8,30.2,26.5,78,65,50,30.10,29.94,8,3,15,0.00
2013-3-29,50.5,43.1,37.4,33.1,29.6,27.7,69,59,46,30.13,30.05,11,4,27,0.00
2013-3-30,55.9,44.9,37.4,29.1,23.0,14.9,67,45,21,30.13,30.04,10,3,19,0.00
2013-3-31,55.9,41.5,26.2,37.7,24.0,15.5,84,53,24,30.12,29.71,16,4,27,0.11
2013-4-1,48.7,39.9,30.5,44.0,29.1,6.1,91,69,27,29.88,29.55,14,3,27,0.13
2013-4-2,35.7,30.6,25.7,23.6,16.1,8.5,79,56,32,30.02,29.87,15,4,27,0.00
2013-4-3,40.1,32.2,24.2,22.0,13.0,4.6,76,47,24,30.29,30.01,13,4,28,0.05
2013-4-4,54.6,41.0,28.0,22.9,17.0,13.7,65,41,21,30.35,29.96,11,3,16,0.00
2013-4-5,52.3,41.3,30.5,29.2,22.0,13.7,75,49,24,30.00,29.77,14,3,21,0.00
2013-4-6,47.1,36.1,28.5,26.6,7.3,-1.0,70,32,19,30.30,30.00,12,4,21,0.00
2013-4-7,59.7,45.6,28.2,38.0,24.9,11.5,67,46,22,30.26,29.82,17,6,34,0.12
2013-4-8,62.2,51.3,42.2,40.7,34.0,30.4,71,53,31,30.14,29.92,8,2,13,0.00
2013-4-9,58.1,52.7,48.2,47.6,42.0,36.7,85,67,54,30.05,29.80,10,3,25,0.02
2013-4-10,57.0,49.9,46.0,49.2,46.0,41.6,92,87,72,29.99,29.84,12,2,15,0.57
2013-4-11,45.8,39.1,32.7,43.6,30.0,20.7,92,71,44,30.16,29.89,11,3,17,0.02
2013-4-12,40.1,35.1,32.1,35.1,31.0,23.6,90,85,68,30.14,29.77,8,1,15,0.06
2013-4-13,51.9,42.4,36.6,42.2,36.4,33.4,94,80,57,29.94,29.80,7,1,15,0.05
2013-4-14,47.1,40.8,30.3,36.9,29.6,22.1,89,66,39,30.26,29.93,13,2,21,0.04
2013-4-15,60.2,45.6,27.3,35.3,28.2,21.2,85,54,32,30.37,30.21,11,3,22,0.00
2013-4-16,59.5,53.0,45.6,54.1,42.2,30.2,88,67,50,30.29,29.99,12,4,23,0.18
2013-4-17,64.5,53.3,41.9,41.0,33.4,23.2,75,51,22,30.33,30.14,12,3,17,0.01
2013-4-18,65.4,51.6,36.3,48.2,36.2,29.3,81,58,33,30.35,30.01,19,6,34,0.00
2013-4-19,71.6,61.0,44.2,62.1,54.6,40.3,91,80,67,30.00,29.49,15,6,34,0.53
2013-4-20,52.8,44.3,35.2,40.4,32.2,17.3,92,65,35,30.34,29.73,13,3,22,0.11
2013-4-21,52.3,40.3,29.8,25.7,17.4,12.0,60,42,22,30.66,30.34,10,3,15,0.00
2013-4-22,59.3,46.0,31.6,29.5,20.9,15.5,65,39,20,30.72,30.48,11,4,17,0.00
2013-4-23,53.9,43.8,30.7,38.5,31.7,24.3,84,63,54,30.53,30.14,7,2,11,0.00
2013-4-24,72.6,53.9,31.4,50.6,40.8,28.3,93,64,41,30.14,29.65,11,3,20,0.06
2013-4-25,58.1,47.3,38.1,48.7,32.0,24.9,85,58,30,30.27,29.79,11,3,19,0.01
2013-4-26,58.1,47.0,33.8,37.7,30.5,24.7,81,56,29,30.45,30.27,9,2,17,0.00
2013-4-27,65.8,50.9,32.5,37.4,29.0,16.2,78,48,16,30.46,30.26,7,2,11,0.00
2013-4-28,73.4,57.2,36.8,40.8,35.1,29.8,89,50,21,30.31,30.08,9,2,17,0.00
2013-4-29,60.0,55.9,51.6,49.1,41.9,31.3,86,61,38,30.22,30.15,11,3,22,0.00
2013-4-30,72.6,60.5,49.4,49.3,44.2,33.5,92,59,27,30.29,30.20,8,2,13,0.00
2013-5-1,77.5,62.4,42.0,40.2,33.1,21.1,76,38,14,30.44,30.28,6,1,11,0.00
2013-5-2,82.2,66.0,43.8,48.4,40.8,31.5,87,45,18,30.46,30.24,6,1,13,0.00
2013-5-3,72.8,62.2,52.7,40.1,34.1,25.2,59,37,18,30.48,30.29,8,2,13,0.00
2013-5-4,77.1,62.2,42.0,47.8,41.3,31.2,94,52,25,30.36,30.14,6,1,10,0.00
2013-5-5,77.1,62.5,43.7,46.3,36.4,21.5,91,45,15,30.29,30.11,5,1,10,0.00
2013-5-6,76.8,60.9,43.7,49.4,37.3,17.4,92,50,12,30.25,30.05,6,1,11,0.00
2013-5-7,81.8,66.8,47.8,55.6,49.7,40.1,96,60,23,30.16,30.00,7,1,11,0.00
2013-5-8,72.3,64.0,54.8,65.3,58.5,52.5,99,83,61,30.13,29.96,5,1,15,0.15
2013-5-9,73.0,61.8,51.0,60.1,54.7,50.8,99,80,46,29.99,29.83,4,1,11,0.01
2013-5-10,77.7,66.9,53.4,58.7,55.5,52.4,98,70,45,29.96,29.79,5,1,9,0.00
2013-5-11,69.6,62.2,55.5,65.2,58.5,49.8,98,88,67,29.82,29.64,6,2,13,0.19
2013-5-12,60.6,53.2,43.3,50.6,39.8,24.6,91,64,26,29.86,29.66,11,2,21,0.01
2013-5-13,50.3,44.3,38.6,34.5,30.0,25.9,74,58,44,30.09,29.86,7,2,15,0.00
2013-5-14,59.1,47.5,37.7,36.8,31.6,25.9,81,57,32,30.12,30.00,8,2,14,0.00
2013-5-15,65.1,48.0,30.5,54.0,40.2,28.1,96,76,48,30.05,29.57,11,2,17,0.04
2013-5-16,80.2,64.6,42.2,51.9,39.9,28.1,93,47,17,29.87,29.66,11,3,30,0.00
2013-5-17,71.6,59.3,47.3,45.1,40.6,30.9,76,53,23,30.22,29.87,8,2,13,0.00
2013-5-18,74.1,59.6,40.2,49.6,44.2,39.2,97,62,30,30.30,30.18,6,1,11,0.00
2013-5-19,59.0,55.3,45.6,57.6,53.3,44.8,99,93,76,30.29,30.13,7,2,15,0.13
2013-5-20,81.8,67.7,56.8,66.0,61.0,55.6,98,81,55,30.14,29.89,5,1,8,0.00
2013-5-21,89.6,73.4,60.0,69.5,64.5,59.5,99,77,44,29.93,29.73,7,1,16,0.53
2013-5-22,78.9,69.2,63.3,71.8,66.9,62.4,99,93,73,29.88,29.74,7,2,15,1.84
2013-5-23,76.8,69.3,63.8,69.8,66.2,62.2,99,90,71,29.80,29.71,7,1,14,0.00
2013-5-24,64.0,51.0,43.5,62.2,50.1,42.9,99,97,91,30.01,29.64,8,2,17,0.53
2013-5-25,46.5,44.7,43.5,44.7,43.3,41.5,98,95,88,30.00,29.92,9,3,20,0.51
2013-5-26,59.0,50.8,41.7,46.3,41.6,38.7,92,72,49,30.13,29.86,11,3,23,0.02
2013-5-27,71.9,59.3,41.7,43.1,38.6,33.0,92,49,27,30.20,30.09,8,3,16,0.00
2013-5-28,71.6,58.2,40.2,55.9,44.6,35.9,97,64,34,30.23,30.10,8,2,13,0.00
2013-5-29,77.7,64.9,57.5,70.2,62.4,55.9,99,92,73,30.11,29.88,7,2,28,0.90
2013-5-30,87.9,73.2,59.0,74.3,65.1,58.7,99,79,49,30.09,30.01,8,1,12,0.01
2013-5-31,93.7,77.4,61.5,71.8,67.0,60.9,99,74,40,30.10,29.88,7,1,10,0.00
2013-6-1,94.2,79.0,64.2,71.4,67.5,63.0,98,71,40,29.95,29.78,5,1,10,0.00
2013-6-2,87.4,74.0,67.8,73.3,68.9,62.8,97,85,54,29.81,29.65,12,1,21,0.14
2013-6-3,68.3,62.7,51.8,67.5,52.9,38.2,99,72,44,29.94,29.79,10,2,17,0.00
2013-6-4,71.7,59.7,48.2,48.8,44.3,40.4,83,59,37,30.12,29.93,8,3,17,0.00
2013-6-5,56.6,52.8,48.5,43.9,42.5,41.3,81,69,58,30.15,30.11,3,1,8,0.00
2013-6-9,78.8,70.0,55.4,60.9,57.4,55.1,99,66,47,30.17,30.08,7,2,17,0.00
2013-6-10,64.9,60.5,53.2,63.4,58.8,52.6,99,94,83,30.18,29.86,3,1,7,0.48
2013-6-11,66.9,62.1,59.3,65.8,60.8,56.6,99,95,85,29.86,29.56,8,1,18,1.11
2013-6-12,73.9,63.6,55.0,57.3,54.8,51.3,95,75,47,29.84,29.63,9,2,16,0.00
2013-6-13,58.1,55.5,50.5,57.8,55.1,50.2,99,99,95,29.82,29.65,4,1,10,0.78
2013-6-14,74.3,63.3,53.9,66.5,58.6,53.1,99,86,60,29.85,29.68,6,1,11,0.12
2013-6-15,77.9,66.9,57.0,57.5,50.6,44.4,91,60,35,29.97,29.85,8,2,15,0.00
2013-6-16,71.4,62.3,52.3,64.5,56.8,45.1,96,83,65,29.95,29.68,8,1,14,0.00
2013-6-17,84.9,68.5,55.7,70.1,61.4,55.4,99,80,45,29.90,29.74,5,1,11,0.08
2013-6-18,64.0,60.3,51.9,59.3,54.9,50.0,94,83,70,29.96,29.89,7,2,13,0.01
2013-6-19,73.7,60.8,46.9,52.6,47.7,42.0,99,67,33,30.17,29.95,6,1,11,0.00
2013-6-20,55.0,53.0,49.8,49.9,48.3,46.8,91,84,81,30.19,30.16,1,0,3,0.00
2013-6-26,83.8,75.3,69.4,71.7,69.8,67.8,98,84,66,29.79,29.74,5,1,9,0.00
2013-6-27,86.7,75.4,64.5,73.5,68.3,64.2,99,81,49,29.80,29.59,7,1,10,0.02
2013-6-28,80.9,72.8,67.6,70.8,67.7,65.1,99,85,62,29.58,29.31,11,2,23,0.53
2013-6-29,82.7,71.7,62.9,73.3,66.5,62.0,99,85,60,29.66,29.46,4,1,10,0.52
2013-6-30,86.1,73.3,63.6,70.9,67.5,62.8,99,83,56,29.89,29.66,7,1,15,0.00
2013-7-1,76.2,70.7,67.8,71.7,68.5,66.8,99,93,85,30.01,29.89,5,1,9,0.20
2013-7-2,83.6,71.7,65.1,77.3,69.7,64.8,99,94,75,30.10,30.00,4,1,8,0.35
2013-7-3,85.1,75.0,69.9,75.4,71.9,69.3,99,91,70,30.17,30.08,5,1,10,0.01
2013-7-4,92.8,80.8,70.5,75.9,72.7,69.6,98,79,51,30.19,30.03,6,1,13,0.00
2013-7-5,92.3,80.5,70.5,80.3,73.4,69.3,98,80,56,30.15,29.98,5,1,17,0.01
2013-7-6,87.4,78.0,70.7,74.3,69.9,65.2,96,78,49,30.10,29.99,6,1,14,0.00
2013-7-7,91.5,76.6,68.5,79.3,71.3,66.7,96,85,58,30.05,29.88,7,1,13,0.02
2013-7-8,85.8,76.5,70.8,73.3,70.3,67.6,97,83,57,30.02,29.91,6,1,9,0.01
2013-7-9,88.5,78.0,68.7,73.8,70.6,68.1,98,80,57,30.06,29.94,5,1,9,0.04
2013-7-10,82.5,76.9,73.2,76.1,72.9,69.6,97,88,73,29.97,29.74,4,2,11,0.05
2013-7-11,83.4,75.4,69.4,73.9,65.8,60.7,98,74,49,29.98,29.74,9,2,14,0.00
2013-7-12,82.0,72.3,61.7,65.9,61.9,57.8,91,71,51,30.16,29.97,5,1,9,0.00
2013-7-13,77.5,72.0,65.3,71.6,65.4,59.7,93,80,73,30.27,30.16,3,1,6,0.00
2013-7-14,92.3,78.7,67.1,76.1,70.5,66.5,99,79,47,30.31,30.19,7,1,10,0.00
2013-7-15,92.8,80.7,69.9,72.9,70.0,65.7,96,72,48,30.23,30.11,7,2,11,0.00
2013-7-16,92.8,81.3,68.5,75.0,69.3,65.2,93,69,45,30.22,30.11,4,1,11,0.00
2013-7-17,95.1,82.9,70.5,75.9,71.0,67.8,93,70,43,30.20,29.98,6,1,12,0.00
2013-7-18,94.6,84.8,77.5,77.0,72.8,69.9,87,69,47,30.03,29.90,8,2,15,0.00
2013-7-19,97.7,85.1,73.5,75.5,71.6,66.1,93,67,43,29.92,29.67,9,2,19,0.00
2013-7-20,86.1,76.5,70.7,71.4,67.5,62.1,88,74,55,29.82,29.67,8,2,20,0.00
2013-7-21,86.0,74.1,63.1,66.7,62.2,59.6,92,68,44,29.98,29.83,5,1,11,0.00
2013-7-22,85.8,73.0,61.7,71.8,64.2,58.9,96,76,45,30.01,29.80,8,1,18,0.32
2013-7-23,82.9,73.8,68.9,73.5,69.7,66.7,99,88,64,29.80,29.53,4,1,10,0.26
2013-7-24,76.4,69.8,60.4,68.7,60.0,50.5,98,73,51,30.02,29.58,10,3,17,0.00
2013-7-25,73.0,62.1,49.6,56.6,51.4,47.9,95,70,44,30.11,30.03,6,1,10,0.00
2013-7-26,78.8,67.0,57.0,61.7,57.9,53.8,92,74,53,30.07,29.97,7,1,11,0.00
2013-7-27,85.1,69.8,52.8,66.0,59.6,52.3,99,73,38,30.04,29.90,9,2,15,0.00
2013-7-28,73.9,69.9,67.1,69.1,66.3,63.3,96,89,76,29.96,29.89,9,2,15,0.12
2013-7-29,82.4,71.0,61.5,67.8,60.9,55.0,98,74,41,30.10,29.93,6,2,12,0.00
2013-7-30,80.9,68.2,55.4,61.7,57.4,54.1,98,71,43,30.16,30.05,9,2,13,0.00
2013-7-31,82.2,69.5,55.2,62.4,58.5,53.9,96,71,44,30.15,29.99,8,1,11,0.00
2013-8-1,75.3,66.6,58.8,67.6,63.3,58.1,98,89,75,30.01,29.80,12,2,21,0.09
2013-8-2,83.3,71.3,63.1,65.2,61.1,56.0,98,73,43,29.86,29.78,9,2,18,0.00
2013-8-3,80.9,69.9,60.6,63.8,57.1,47.3,95,67,36,29.87,29.78,9,2,17,0.00
2013-8-4,77.5,66.3,54.5,63.3,55.9,52.5,95,71,46,29.96,29.82,9,2,21,0.00
2013-8-5,78.6,66.3,55.0,56.8,50.8,43.5,90,61,31,30.05,29.95,8,2,14,0.00
2013-8-6,81.6,66.7,48.9,58.2,52.9,47.8,97,65,37,30.11,30.04,7,1,11,0.00
2013-8-7,77.3,70.7,62.4,64.9,61.8,57.3,87,74,63,30.12,29.99,8,3,18,0.00
2013-8-8,85.8,75.2,69.2,73.7,69.5,64.7,95,83,64,30.00,29.91,8,2,14,0.07
2013-8-9,77.7,74.0,70.7,74.8,71.8,66.6,98,93,87,29.94,29.75,4,1,11,0.46
2013-8-10,78.0,70.3,60.6,66.6,57.0,47.4,94,66,38,30.06,29.84,8,3,17,0.01
2013-8-11,79.7,67.4,58.4,57.7,54.2,49.5,86,65,42,30.10,29.99,7,2,12,0.00
2013-8-12,82.0,69.3,56.1,63.9,59.3,54.9,97,74,44,30.04,29.88,4,1,8,0.00
2013-8-13,73.9,66.9,61.8,68.7,64.2,57.1,99,91,78,29.88,29.64,5,1,20,0.97
2013-8-14,69.8,61.2,52.7,58.3,54.3,51.1,96,79,63,30.00,29.75,8,2,18,0.00
2013-8-15,75.2,63.0,53.0,57.3,53.5,50.0,95,74,45,30.11,30.00,7,2,17,0.00
2013-8-16,78.8,64.3,50.7,60.7,54.4,50.1,99,74,42,30.20,30.10,7,1,11,0.00
2013-8-17,81.6,66.2,51.8,63.5,57.4,51.2,99,77,41,30.28,30.19,4,1,7,0.00
2013-8-18,76.2,65.8,56.8,65.6,61.2,56.2,99,86,65,30.27,30.08,3,0,5,0.00
2013-8-19,83.3,70.1,59.9,65.4,60.9,55.4,98,76,42,30.09,29.96,4,1,9,0.00
2013-8-20,84.3,70.8,57.3,65.6,60.8,56.5,98,74,45,30.11,30.01,8,1,15,0.00
2013-8-21,87.8,72.5,58.6,68.5,63.2,57.8,98,76,45,30.16,30.01,4,1,9,0.00
2013-8-22,89.7,75.1,60.2,70.6,64.6,59.6,98,73,42,30.03,29.79,6,1,18,0.00
2013-8-23,78.2,69.4,56.6,67.7,59.4,51.8,94,73,46,30.17,29.88,7,2,15,0.00
2013-8-24,80.2,63.7,48.7,59.1,52.7,48.1,99,72,36,30.34,30.17,4,1,9,0.00
2013-8-25,84.9,66.8,49.6,60.3,55.6,49.3,99,72,35,30.38,30.13,5,1,8,0.00
2013-8-26,80.9,69.6,64.4,70.0,65.6,60.3,97,87,64,30.15,29.86,4,1,8,0.12
2013-8-27,83.6,72.9,66.5,71.4,68.5,66.0,99,87,62,29.90,29.83,4,1,8,0.06
2013-8-28,87.8,73.4,62.6,71.9,67.1,61.7,99,83,49,29.91,29.79,4,1,6,0.00
2013-8-29,81.3,72.3,63.1,68.8,66.3,62.2,99,83,62,30.02,29.91,4,1,8,0.00
2013-8-30,88.1,74.6,64.9,71.2,67.5,63.4,98,81,50,29.98,29.77,6,1,11,0.00
2013-8-31,80.7,71.9,68.5,75.3,70.3,67.2,98,95,82,29.80,29.71,8,0,13,1.19
2013-9-1,82.5,73.9,66.9,73.3,70.2,66.6,99,89,70,29.84,29.77,4,0,7,0.01
2013-9-2,81.3,73.7,66.0,73.8,70.1,64.6,99,89,74,29.79,29.63,6,1,14,0.20
2013-9-3,76.8,66.8,61.3,65.5,61.0,56.9,99,83,52,29.86,29.71,5,1,13,0.00
2013-9-4,79.1,67.5,59.5,62.6,57.5,53.2,96,73,42,29.94,29.85,8,2,15,0.00
2013-9-5,71.2,63.3,49.1,61.2,50.0,37.9,91,66,31,30.19,29.86,9,2,16,0.00
2013-9-6,70.7,56.9,42.8,49.4,43.5,34.4,96,65,33,30.26,30.10,4,1,9,0.00
2013-9-7,75.9,60.0,47.3,59.3,53.7,46.5,99,82,53,30.11,29.85,4,0,7,0.00
2013-9-8,71.6,63.1,47.6,62.6,51.6,40.1,97,70,34,30.14,29.77,11,2,18,0.01
2013-9-9,71.0,56.8,40.8,55.2,47.7,40.2,99,74,47,30.23,30.06,5,1,49,0.00
2013-9-10,77.3,66.3,56.1,72.3,63.9,53.4,99,92,82,30.08,29.95,4,0,8,0.55
2013-9-11,95.9,77.2,66.3,80.6,71.5,65.7,99,85,46,30.05,29.89,8,1,13,0.08
2013-9-12,83.8,71.6,66.7,74.7,69.5,66.1,99,93,70,29.92,29.65,6,1,15,0.39
2013-9-13,70.8,62.8,53.4,66.1,59.2,48.5,99,88,72,29.87,29.61,8,2,18,0.01
2013-9-14,65.1,55.8,50.9,51.2,48.1,45.8,91,76,58,30.09,29.86,8,3,17,0.00
2013-9-15,72.5,57.0,42.6,55.8,49.9,41.7,98,79,52,30.18,30.03,4,1,8,0.00
2013-9-16,64.9,54.8,41.7,55.5,51.4,41.4,99,89,69,30.33,30.02,7,1,16,0.14
2013-9-17,64.7,49.6,36.3,48.3,41.6,35.2,99,78,41,30.48,30.33,4,1,10,0.00
2013-9-18,72.6,52.2,36.8,53.0,45.5,35.8,99,81,47,30.35,30.12,4,1,7,0.00
2013-9-19,78.0,58.1,43.1,57.8,50.5,42.6,99,80,39,30.17,30.01,3,0,5,0.00
2013-9-20,79.5,61.3,45.3,60.0,52.9,44.5,99,78,41,30.08,29.91,7,1,13,0.00
2013-9-21,75.5,65.7,55.2,64.5,59.5,53.8,96,82,57,29.95,29.59,11,3,24,0.08
2013-9-22,64.9,57.7,50.1,59.1,50.4,42.5,98,78,52,29.92,29.59,11,2,17,0.07
2013-9-23,61.5,51.2,43.3,44.6,42.1,39.5,91,72,52,30.09,29.92,8,2,16,0.00
2013-9-24,66.3,53.0,41.1,48.2,43.6,37.4,91,72,47,30.08,29.85,9,3,17,0.00
2013-9-25,72.1,57.3,42.8,53.9,48.8,40.9,95,75,47,29.98,29.86,4,1,9,0.00
2013-9-26,67.1,55.8,45.5,52.5,48.4,44.3,97,78,54,30.15,29.98,8,1,11,0.00
2013-9-27,60.6,52.2,41.1,53.1,48.6,40.6,99,88,73,30.29,30.14,4,0,10,0.00
2013-9-28,74.3,55.4,40.4,56.4,49.0,40.2,99,82,41,30.37,30.23,4,0,5,0.00
2013-9-29,73.5,56.5,42.6,56.9,49.3,42.2,99,80,38,30.24,30.04,4,1,8,0.00
2013-9-30,73.4,56.8,44.9,57.8,50.9,44.1,99,83,47,30.10,29.94,3,0,6,0.00
2013-10-1,77.5,59.5,44.0,60.9,52.8,43.3,99,81,54,30.01,29.86,5,1,15,0.00
2013-10-2,77.1,62.2,49.8,64.5,56.6,49.4,99,83,58,30.02,29.87,7,1,16,0.00
2013-10-3,74.4,60.4,47.6,55.8,51.8,46.8,99,76,44,30.11,30.00,5,1,15,0.00
2013-10-4,61.3,58.1,54.8,59.2,56.1,52.8,98,93,87,30.08,30.01,4,0,6,0.21
2013-10-5,61.8,58.7,55.7,57.0,55.5,53.8,96,90,76,30.11,30.04,4,0,6,0.01
2013-10-6,62.2,56.7,52.3,60.4,55.2,50.9,99,95,86,30.11,30.00,8,1,15,0.26
2013-10-7,74.6,62.9,51.2,67.8,60.2,49.5,96,91,77,30.00,29.60,17,3,27,0.41
2013-10-8,65.6,55.0,43.3,49.8,44.7,40.2,94,71,43,30.38,29.93,6,1,11,0.01
2013-10-9,64.4,48.5,36.5,47.9,41.3,35.2,99,80,38,30.48,30.33,3,0,5,0.00
2013-10-10,60.9,50.3,36.5,50.9,44.9,35.2,99,83,57,30.35,30.16,4,1,8,0.00
2013-10-11,70.7,56.7,47.8,52.1,48.0,39.8,97,76,33,30.17,30.06,4,1,7,0.00
2013-10-12,74.8,57.0,40.2,54.9,48.2,39.7,98,75,48,30.34,30.15,7,1,12,0.00
2013-10-13,68.3,58.7,50.5,52.6,50.0,47.6,93,75,49,30.41,30.29,7,2,12,0.00
2013-10-14,67.1,57.6,48.9,55.8,51.7,46.4,94,81,65,30.35,30.22,6,1,13,0.00
2013-10-15,68.5,60.1,54.1,58.8,55.5,52.4,96,85,68,30.25,30.09,4,1,9,0.00
2013-10-16,63.8,58.6,52.7,56.3,50.5,42.2,96,75,59,30.09,29.83,6,2,11,0.00
2013-10-17,69.6,61.0,55.0,56.4,52.3,48.8,93,75,49,29.87,29.59,7,1,13,0.02
2013-10-18,64.7,55.4,42.8,54.8,46.1,34.7,96,74,34,29.94,29.57,8,2,17,0.06
2013-10-19,65.4,50.8,37.0,47.4,41.6,34.9,97,74,41,29.95,29.67,8,2,16,0.00
2013-10-26,52.3,46.6,33.9,35.9,29.7,21.6,88,54,30,30.09,29.80,8,2,15,0.00
2013-10-27,51.8,44.6,33.8,37.5,34.7,29.7,85,69,49,30.08,29.78,8,2,17,0.00
2013-10-28,57.3,41.4,30.0,39.4,30.5,22.9,92,68,36,30.38,30.07,8,1,18,0.00
2013-10-29,46.5,34.6,23.9,29.3,22.3,16.5,85,63,30,30.48,30.35,5,1,10,0.00
2013-10-30,51.9,39.1,32.1,41.6,32.8,24.6,88,79,65,30.34,30.18,3,0,4,0.00
2013-10-31,59.3,45.1,30.2,57.9,43.4,27.8,97,94,88,30.24,29.61,7,1,15,0.21
2013-11-1,71.0,62.3,47.6,61.3,52.3,40.2,95,73,36,29.68,29.33,11,3,20,0.14
2013-11-2,58.4,46.9,37.0,47.3,41.0,34.5,95,81,62,29.84,29.59,13,1,18,0.00
2013-11-3,42.4,36.8,24.4,37.3,24.8,14.2,86,62,41,30.49,29.84,8,2,15,0.00
2013-11-4,41.3,31.4,21.9,22.9,15.2,10.5,77,53,30,30.69,30.49,9,2,14,0.00
2013-11-5,50.9,39.2,24.6,36.5,28.2,16.4,79,65,52,30.67,30.44,7,1,11,0.00
2013-11-6,61.7,50.4,39.0,46.0,41.7,35.3,89,73,54,30.45,29.91,11,3,17,0.00
2013-11-7,54.5,48.3,40.1,49.7,41.9,33.9,91,79,63,29.91,29.75,10,2,15,0.14
2013-11-8,45.1,38.8,32.7,35.4,30.0,23.9,85,71,46,30.16,29.87,11,3,19,0.00
2013-11-9,43.1,36.0,28.0,31.4,27.1,19.2,81,70,57,30.23,29.90,4,1,8,0.00
2013-11-10,50.0,42.3,35.9,40.9,34.4,28.1,88,74,55,29.98,29.74,8,2,19,0.04
2013-11-11,47.6,43.4,35.7,35.5,29.7,24.4,77,58,48,30.14,29.90,9,2,19,0.00
2013-11-12,41.1,31.4,27.1,34.5,19.6,11.6,80,62,48,30.28,29.93,10,3,18,0.01
2013-11-13,35.7,28.6,22.8,16.9,11.4,2.6,64,49,25,30.37,30.15,8,2,17,0.00
2013-11-14,51.2,34.6,21.9,24.8,18.9,13.8,74,55,28,30.15,30.04,7,1,14,0.00
2013-11-15,55.4,38.1,24.2,25.8,19.4,14.9,71,51,21,30.19,30.07,6,1,8,0.00
2013-11-16,59.5,44.7,35.4,37.0,31.6,24.6,82,62,39,30.29,30.18,5,1,8,0.00
2013-11-17,60.4,50.5,36.6,56.6,46.8,30.1,95,87,77,30.24,29.64,14,4,23,0.02
2013-11-18,61.3,54.8,40.2,57.0,41.2,29.3,89,62,34,29.75,29.44,17,4,28,0.22
2013-11-19,41.0,36.1,28.7,29.8,20.7,14.8,74,54,45,30.40,29.75,12,4,28,0.01
2013-11-20,38.1,28.9,21.3,16.5,12.2,7.4,68,50,29,30.65,30.39,8,2,12,0.00
2013-11-21,43.3,31.6,16.3,30.5,19.3,8.9,77,62,37,30.65,30.36,7,1,9,0.00
2013-11-22,46.9,40.1,35.9,42.8,35.8,27.4,91,84,69,30.35,29.86,9,1,19,0.05
2013-11-23,43.8,34.0,22.6,36.4,22.9,11.3,80,64,36,30.02,29.83,12,4,33,0.02
2013-11-24,25.8,19.9,14.3,14.3,-0.6,-7.0,76,41,23,30.32,29.91,13,5,27,0.04
2013-11-25,31.8,24.0,13.8,14.3,6.2,-5.0,52,46,36,30.44,30.20,8,2,15,0.00
2013-11-26,33.8,31.1,26.9,29.6,24.3,12.4,87,77,45,30.29,29.92,4,1,10,0.00
2013-11-27,38.4,35.1,31.1,36.9,31.4,24.7,94,86,77,29.92,29.38,10,3,19,0.44
2013-11-28,31.1,24.3,16.7,24.7,9.9,4.2,77,55,36,30.46,29.64,11,3,27,0.00
2013-11-29,32.0,23.3,17.0,15.5,10.3,4.0,77,58,40,30.77,30.46,8,2,14,0.00
2013-11-30,30.3,22.6,9.3,16.5,6.3,0.0,70,50,32,30.80,30.35,11,3,15,0.00
2013-12-1,38.8,31.3,23.5,28.8,22.1,14.3,79,69,56,30.35,30.01,7,1,10,0.00
2013-12-2,38.4,33.8,28.5,32.0,28.0,24.3,84,79,73,30.02,29.89,2,0,4,0.00
2013-12-3,42.8,34.9,27.5,34.9,27.9,22.1,86,76,63,30.01,29.89,8,1,11,0.00
2013-12-4,41.9,31.1,23.5,30.2,23.0,18.0,85,72,55,30.15,30.00,4,1,7,0.00
2013-12-5,53.7,44.8,28.2,48.8,39.9,20.6,90,83,73,30.14,29.86,13,3,20,0.00
2013-12-6,49.1,39.0,32.5,44.7,33.5,26.7,90,81,67,30.19,29.88,10,3,18,0.20
2013-12-7,37.4,32.4,28.5,28.1,23.1,17.2,83,69,55,30.50,30.15,11,2,21,0.00
2013-12-8,30.5,28.4,25.7,19.3,17.3,16.0,70,63,57,30.60,30.43,4,2,10,0.00
2013-12-9,37.7,31.5,25.7,32.8,25.4,15.3,85,78,58,30.43,29.88,8,3,17,0.00
2013-12-10,36.1,30.1,19.0,25.5,18.2,10.0,76,61,53,30.01,29.84,7,2,16,0.00
2013-12-11,31.2,25.7,19.0,19.1,11.2,1.0,76,54,35,30.20,30.01,8,3,17,0.00
2013-12-12,23.0,18.2,13.2,13.1,0.6,-9.0,68,46,26,30.35,30.02,6,2,11,0.00
2013-12-13,29.1,21.7,12.9,17.4,5.4,-3.0,68,49,37,30.44,29.96,10,3,19,0.00
2013-12-14,12.7,9.3,6.2,4.7,-4.0,-10.0,72,54,40,30.61,30.04,9,4,13,0.00
2013-12-15,28.0,22.4,12.0,21.1,15.4,4.7,80,74,66,30.04,29.55,7,2,17,0.00
2013-12-16,25.8,18.2,1.9,18.8,4.4,-8.0,76,55,43,30.25,29.73,9,2,23,0.00
2013-12-17,13.1,4.5,-8.0,4.8,-5.4,-20.0,69,62,53,30.27,30.01,5,1,7,0.00
2013-12-18,28.0,19.8,8.4,17.7,10.9,0.0,73,68,61,30.06,29.97,4,1,6,0.00
2013-12-19,43.3,32.0,22.6,24.6,20.7,14.9,73,63,46,30.09,29.94,5,1,10,0.00
2013-12-20,41.1,35.3,31.6,33.5,28.3,21.9,85,75,63,30.08,29.88,2,0,4,0.09
2013-12-21,45.8,39.5,34.8,40.9,36.0,31.1,92,87,82,29.89,29.81,4,1,9,0.14
2013-12-22,49.8,36.3,30.3,47.9,33.2,26.9,94,88,84,29.91,29.62,8,1,11,0.01
2013-12-23,46.7,39.6,33.4,42.1,35.0,24.0,92,84,63,30.19,29.92,8,1,17,0.11
2013-12-24,33.4,26.1,15.9,23.3,13.5,0.6,68,59,50,30.35,30.12,10,2,24,0.00
2013-12-25,20.3,14.8,8.4,2.1,-3.0,-8.0,53,44,29,30.57,30.34,8,2,20,0.00
2013-12-26,31.6,25.4,16.7,23.5,14.3,2.1,80,63,45,30.40,30.10,11,3,16,0.00
2013-12-27,35.0,29.6,23.1,22.3,17.8,12.6,71,61,54,30.29,30.19,8,2,11,0.00
2013-12-28,44.4,31.2,22.4,29.2,22.3,15.4,80,70,53,30.20,30.01,3,1,8,0.00
2013-12-29,36.3,31.2,25.7,30.5,26.3,20.1,87,82,72,30.02,29.59,3,0,4,0.21
2013-12-30,36.3,24.4,12.3,32.5,12.3,-1.0,87,60,41,30.23,29.63,11,3,24,0.08
2013-12-31,22.6,15.5,8.7,14.6,3.5,-4.0,76,58,37,30.22,30.01,8,2,17,0.00
2014-1-1,24.4,17.2,9.5,12.9,4.8,-3.0,72,58,42,30.38,30.20,7,1,11,0.00
2014-1-2,15.9,3.6,-1.0,7.6,-5.6,-12.0,69,64,59,30.37,29.94,11,5,18,0.00